RH
3 4 4 5 5 7 12 10 15 26 36 41 51 54 20 14 11 9 7 6 6 4 4 4 3 4 3 4 4 4 4 5 7 8 10 13 18 22 19 18 18 17 20 26
3 4 5 6 8 12 12 22 58 55 53 69 59 24 19 14 11 9 9 8 6 6 5 4 5 6 6 6 7 8 6 6 7 9 12 17 17 30 32 31 29 25 21 24
5 5 6 9 10 10 34 67 71 59 58 62 27 23 18 14 11 12 10 8 7 6 6 6 9 10 11 11 11 11 11 12 12 12 12 12 15 23 32 38 42 41 35 36
6 5 8 10 11 20 45 70 56 65 58 36 24 22 18 15 14 15 10 9 8 8 8 11 13 14 16 19 22 22 21 22 19 18 19 21 19 16 16 22 29 29 32 33
8 8 11 14 27 46 53 59 69 57 36 30 25 22 18 15 14 12 11 8 8 9 10 11 11 14 20 24 24 24 26 30 33 33 35 38 40 36 32 29 26 26 28 26
9 9 10 21 54 42 78 79 65 39 35 35 30 28 20 20 18 16 16 13 13 16 18 20 20 20 26 30 39 40 38 40 48 50 45 43 45 45 40 45 49 50 51 50
10 11 16 42 63 83 78 72 53 38 39 37 35 32 27 27 28 28 28 28 27 34 37 41 39 33 31 36 36 46 48 55 59 56 52 54 54 56 59 64 66 65 67 61
12 11 20 63 81 71 79 64 45 39 40 38 39 37 32 33 32 32 35 37 38 40 45 42 45 50 51 53 49 46 46 43 46 57 61 63 69 67 55 50 56 64 63 57
18 27 62 100 80 78 72 52 46 45 42 42 44 41 39 38 36 34 34 41 39 39 39 36 39 44 47 49 51 50 49 54 55 59 58 55 58 56 65 64 59 59 52 54
24 52 88 90 81 88 61 53 51 49 46 44 40 38 39 38 40 41 39 37 36 34 40 42 41 40 39 41 48 52 47 54 60 61 61 60 60 61 63 68 72 79 55 53
48 73 79 75 90 82 59 54 55 56 53 48 44 44 47 48 43 41 42 41 42 43 46 46 44 47 50 51 51 52 53 58 68 70 66 64 67 72 75 80 68 85 76 74
47 73 67 75 92 82 65 58 61 61 58 51 51 48 50 45 45 43 42 44 47 48 48 48 52 51 53 55 57 56 58 70 65 65 69 75 73 83 84 86 82 95 96 80
72 93 85 83 96 95 73 70 80 70 64 57 59 55 52 51 50 49 48 48 50 53 54 53 54 54 56 58 58 58 63 66 71 70 77 88 83 90 93 96 100 99 91 88
94 98 78 94 98 99 100 100 87 82 83 80 79 66 56 54 53 51 53 53 54 57 59 56 54 52 53 56 58 59 62 66 72 81 84 74 96 98 98 100 94 100 99 97
100 100 85 95 100 100 100 100 95 94 97 95 89 86 75 65 61 58 63 62 60 64 65 64 60 54 51 55 56 58 63 66 79 77 94 99 88 98 96 100 100 100 100 93
100 100 97 95 97 100 100 100 100 100 97 89 88 99 91 84 72 70 76 71 66 65 67 64 60 58 56 54 63 60 61 67 76 89 97 99 100 98 100 100 100 100 100 89
100 100 99 90 85 93 100 100 96 100 98 100 99 97 100 98 88 79 72 74 75 72 72 71 70 66 63 59 59 59 61 66 76 83 93 97 99 100 100 100 100 100 99 87
100 100 95 92 97 88 99 100 100 100 100 94 100 100 100 98 95 85 80 79 79 74 78 83 83 79 72 63 64 64 65 67 73 87 95 100 99 100 100 95 100 100 100 93
98 100 100 100 95 86 96 100 100 100 100 99 100 100 100 100 92 92 91 89 84 80 87 79 76 73 72 70 65 63 62 67 79 91 100 99 90 99 99 84 93 98 96 100
97 100 100 100 100 91 91 99 100 100 100 100 100 100 100 96 96 98 99 95 90 96 92 73 69 71 74 75 68 61 64 71 80 90 99 84 88 100 92 98 90 89 91 93
91 100 100 100 100 100 81 75 91 100 100 100 100 100 100 100 99 90 89 82 82 82 77 71 68 74 79 77 69 61 65 75 82 88 98 84 91 94 85 98 82 82 79 80
79 87 100 100 100 100 94 81 81 91 100 100 100 100 89 94 94 93 88 94 95 85 71 70 71 76 77 74 64 61 64 72 75 82 91 84 92 84 83 82 75 79 76 74
48 75 100 100 100 100 100 100 100 98 100 92 91 100 100 100 83 80 77 80 84 84 85 79 71 75 76 69 65 61 64 69 77 79 88 85 91 89 80 64 74 88 72 65
50 72 100 97 100 100 100 100 100 100 100 98 86 93 80 94 99 82 71 78 82 90 90 76 74 80 84 80 71 60 64 66 72 84 85 76 80 81 78 72 71 78 68 50
40 59 82 99 100 100 100 100 100 100 100 100 100 100 99 100 94 84 84 87 88 95 96 83 80 88 91 91 73 62 58 70 71 88 74 64 76 81 64 66 66 65 60 43
20 56 78 100 100 100 100 100 100 100 100 100 100 100 100 100 95 97 96 91 95 92 95 94 91 90 92 92 72 62 59 71 86 79 64 64 82 65 63 66 65 61 57 40
14 59 96 100 100 100 100 100 100 100 100 100 100 100 100 100 100 100 98 97 91 94 100 100 91 97 96 90 70 61 62 77 84 67 59 69 75 57 64 65 66 60 46 32
Wind_Speed
9 8 15 28 35 44 52 47 41 41 40 38 32 27 22 20 19 15 15 17 15 17 18 18 17 23 23 24 22 17 19 19 13 12 7 8 9 13 16 23 26 29 31 37
11 14 27 36 41 51 47 48 48 45 43 36 31 33 29 25 24 22 23 20 21 23 26 28 29 31 33 33 30 29 26 23 19 16 15 12 10 11 10 11 15 20 21 30
10 12 36 44 45 45 53 55 49 46 42 38 39 37 32 28 29 31 22 24 28 30 33 39 41 42 41 40 38 37 33 30 28 25 19 15 12 10 9 7 11 17 19 20
8 6 43 46 45 48 53 54 53 48 41 38 40 40 36 33 34 32 28 32 35 40 45 51 51 47 50 53 55 51 45 41 39 36 30 25 21 15 10 4 8 10 12 17
12 20 39 43 48 53 53 50 49 47 44 41 39 36 37 36 38 37 38 38 42 45 50 51 53 56 58 60 57 52 51 53 50 46 41 39 35 29 21 15 10 9 11 16
7 25 33 44 55 49 52 47 46 47 46 41 37 35 34 39 41 42 43 45 49 52 54 56 55 57 59 57 56 54 54 53 51 48 46 43 41 39 34 31 26 20 12 12
20 27 39 53 53 52 49 48 44 48 46 42 36 34 35 38 42 43 45 48 51 52 53 51 52 50 51 51 49 52 50 51 50 49 46 45 40 40 38 37 34 27 23 18
17 19 38 54 52 50 47 46 44 47 46 41 35 33 33 34 38 42 43 44 46 48 49 47 50 50 50 51 46 43 42 41 43 47 49 48 49 47 44 40 39 41 39 34
24 43 55 52 48 47 46 47 43 45 43 40 38 36 35 35 36 38 39 40 41 41 40 39 40 41 44 45 43 43 40 42 42 44 43 42 41 41 42 42 39 37 37 41
35 52 54 50 47 45 43 44 41 41 39 38 35 35 36 36 38 38 38 40 39 36 38 38 37 39 41 38 39 42 42 46 44 48 42 42 42 44 44 45 47 45 44 43
49 53 52 48 46 44 41 41 40 38 35 35 34 35 35 35 34 33 32 33 34 35 36 37 38 39 40 40 40 43 42 42 47 46 49 47 48 50 50 50 53 56 55 53
45 49 49 48 45 43 41 38 35 33 33 33 32 29 27 27 27 27 29 29 31 32 33 34 35 37 39 39 41 43 43 46 47 47 49 50 52 51 55 54 56 60 61 63
47 48 46 46 44 40 38 36 31 31 31 29 25 22 20 19 21 21 22 22 24 26 28 30 31 33 35 37 38 39 42 44 47 46 49 52 53 53 55 57 60 63 65 67
46 47 45 44 42 38 35 32 30 27 26 24 20 18 15 14 15 16 17 17 20 23 24 25 27 30 32 35 37 38 40 43 45 47 51 52 55 57 57 59 61 65 70 70
43 44 43 42 41 36 31 30 29 28 24 23 20 15 12 10 11 12 13 13 15 18 20 23 25 28 30 33 35 37 41 43 46 50 52 53 56 59 63 63 64 68 74 74
40 41 40 41 40 36 31 29 29 25 20 17 15 13 9 6 5 6 8 11 12 14 17 21 23 26 30 33 37 39 41 45 48 50 54 56 59 62 65 68 69 71 78 78
40 40 39 39 38 34 30 23 20 18 17 14 11 8 6 3 1 3 5 8 11 13 17 22 25 29 31 33 36 38 42 45 49 52 56 58 61 64 66 72 75 78 82 82
41 42 40 38 36 32 30 24 19 17 15 12 10 7 6 4 4 6 8 10 13 15 20 24 28 31 33 34 37 40 43 47 49 52 57 61 65 69 69 75 78 82 86 86
46 42 43 40 37 34 30 26 20 16 14 14 13 11 9 8 8 8 11 13 16 19 22 24 28 31 35 37 38 41 43 46 50 56 61 66 68 72 73 79 84 85 90 96
49 43 47 45 43 38 35 31 25 18 17 16 17 16 15 16 15 15 14 17 18 20 25 28 31 34 37 40 40 42 46 50 54 59 63 68 72 75 78 82 88 93 92 104
51 48 46 48 45 43 43 35 30 26 23 21 20 20 20 19 20 22 23 24 24 26 28 32 35 37 41 41 42 43 47 52 57 63 67 69 75 79 84 86 94 96 98 106
57 54 49 50 50 49 45 40 33 32 27 27 29 27 25 25 26 27 28 28 31 34 35 36 38 40 43 42 43 46 51 55 61 66 71 72 76 81 88 91 97 100 105 109
50 60 55 51 55 49 47 43 42 42 39 39 36 33 29 31 31 31 32 32 34 37 40 41 41 44 45 46 46 50 55 58 64 69 74 76 80 84 89 95 99 103 107 111
60 59 62 58 51 50 53 49 47 45 44 44 43 40 39 35 35 39 39 38 40 41 43 45 45 47 49 51 51 52 58 62 67 72 76 79 84 89 94 100 102 107 110 115
55 62 64 56 52 57 58 56 52 50 51 48 43 42 42 41 44 45 43 45 45 44 46 47 48 51 51 54 55 57 61 66 70 74 77 82 87 92 101 103 104 110 114 118
51 61 63 64 58 58 59 59 56 50 51 50 49 51 50 48 46 46 47 45 45 44 47 49 52 53 53 56 58 60 63 68 72 76 81 85 90 96 101 104 108 113 116 121
53 61 70 70 64 61 58 57 58 52 51 47 49 49 49 47 47 49 47 47 47 45 44 46 52 51 53 58 60 63 67 71 73 78 85 87 95 99 104 105 112 116 120 125
Wind_Direction
50 140 156 139 148 152 153 164 153 132 116 114 105 92 100 93 83 69 60 52 48 54 57 60 63 61 61 64 65 74 79 87 99 93 107 165 198 224 241 227 229 233 230 225
105 143 147 147 151 154 153 142 126 118 113 109 103 93 90 86 82 76 67 66 67 75 82 75 70 70 68 66 65 66 64 66 87 89 93 110 137 177 226 246 247 254 255 245
84 134 145 147 152 149 137 127 120 115 109 102 98 91 89 91 89 78 78 78 80 78 79 76 73 74 75 76 74 70 69 68 68 70 70 84 104 135 164 198 232 244 242 245
93 116 151 150 146 143 132 127 119 112 108 98 97 92 94 92 91 88 89 88 85 82 78 82 82 78 74 73 73 73 71 69 68 67 64 64 65 66 77 133 209 231 244 248
112 145 150 144 138 136 128 117 114 112 103 94 89 89 92 91 90 86 86 89 83 84 77 77 78 75 74 72 70 68 67 68 72 70 69 65 61 55 50 44 32 10 321 298
98 155 152 139 134 132 119 120 114 109 101 92 87 81 80 77 74 74 73 70 70 68 69 68 68 68 66 64 65 63 63 62 64 65 64 62 60 61 58 57 53 50 29 342
138 155 149 139 131 126 124 118 115 108 102 98 93 85 81 81 77 73 73 70 72 72 71 73 73 73 73 70 65 62 63 66 65 61 59 59 55 56 55 57 56 49 45 31
153 161 144 134 132 127 122 119 116 108 104 102 98 91 88 88 85 86 84 85 84 82 84 81 82 81 81 78 77 74 70 63 61 59 56 54 49 47 43 43 39 33 25 23
161 148 135 134 132 128 124 121 117 111 108 109 110 105 99 98 93 92 89 89 87 85 81 80 77 76 77 75 73 70 69 64 64 61 55 50 48 41 37 32 29 20 15 14
153 144 138 138 135 128 127 124 120 114 111 109 111 111 108 103 99 94 90 90 87 87 83 80 79 76 72 71 68 61 58 51 51 47 47 43 40 34 30 25 20 12 7 6
149 144 142 142 135 131 130 126 123 119 115 115 117 117 108 103 100 93 87 88 82 81 77 74 71 65 63 57 56 53 48 45 39 35 33 31 27 23 21 17 13 7 6 0
159 151 150 144 137 135 134 133 128 125 121 119 119 117 110 103 95 87 81 78 74 69 66 67 64 61 55 50 45 41 37 35 32 30 26 22 17 14 12 12 7 4 1 356
158 154 153 146 141 139 139 136 133 130 127 130 129 120 117 104 94 84 77 75 67 63 60 56 53 50 48 42 39 35 29 25 25 21 18 14 10 8 5 3 2 358 354 353
159 160 157 151 146 145 145 143 141 137 130 127 121 123 120 106 89 75 71 60 56 55 51 47 41 40 38 34 31 25 22 19 15 10 12 9 3 2 0 358 356 353 351 350
168 169 163 158 155 152 151 151 150 149 149 140 134 130 123 114 91 72 61 52 49 45 39 31 29 29 27 23 20 15 14 12 11 5 5 2 358 1 356 355 354 349 347 347
177 175 172 167 163 159 157 160 161 159 160 154 148 142 139 121 85 64 45 34 31 22 20 16 14 14 13 10 8 9 8 5 4 1 358 357 355 356 352 349 348 347 345 345
182 186 183 180 175 169 161 163 170 170 171 162 162 155 157 155 101 328 342 1 2 357 357 357 356 354 356 360 359 0 360 357 357 355 351 353 353 351 349 346 345 345 343 343
186 190 194 193 184 176 172 176 178 183 185 187 190 196 215 244 264 292 308 321 329 333 341 341 341 341 343 349 350 352 353 353 352 349 349 349 350 348 346 345 343 344 343 340
193 193 197 199 194 186 186 183 190 201 210 211 214 224 233 266 283 306 313 310 319 333 330 327 331 334 336 340 345 348 350 347 347 346 348 347 348 344 346 345 345 342 345 339
200 198 198 200 200 200 198 190 191 213 230 232 233 242 252 269 279 283 295 309 316 320 317 319 323 329 332 334 341 343 343 343 344 343 346 345 344 343 344 343 345 340 341 339
208 200 200 205 207 204 209 206 197 201 217 235 244 249 256 262 263 273 284 292 300 303 308 313 319 324 327 330 337 337 340 341 342 342 342 342 341 343 343 341 343 341 339 336
209 206 206 206 208 214 217 221 226 215 218 228 238 249 258 264 268 278 286 298 298 300 307 313 319 320 323 326 333 334 335 338 340 340 339 339 340 342 342 340 343 341 339 336
226 213 206 209 209 215 219 226 236 223 224 228 232 242 252 262 270 276 282 288 295 304 307 308 314 318 321 325 330 332 332 336 337 337 337 338 339 341 340 341 342 341 337 334
229 220 212 213 212 214 220 226 229 236 238 238 241 248 251 263 273 281 285 293 299 302 308 313 315 317 321 325 328 328 330 333 335 334 335 337 340 341 337 342 340 337 335 333
224 225 217 214 216 214 220 226 231 240 243 242 248 255 262 266 277 282 291 296 297 302 306 310 313 316 320 324 324 325 328 331 333 333 335 337 341 339 340 340 337 337 334 333
214 222 215 215 219 219 220 224 231 238 239 244 252 255 261 269 277 279 287 291 293 298 304 307 309 314 319 321 321 322 327 329 331 333 334 338 339 337 342 339 336 335 334 331
214 215 215 217 221 222 224 227 229 234 238 246 251 256 262 269 274 277 285 287 294 301 304 307 307 314 318 317 319 324 327 328 330 331 333 337 337 337 341 339 337 333 332 331